User: anonymous   Login
Location: Unspecified
(0.0000°N, 0.0000°E)
Time: 08:00:29
(UTC+01:00)
Language:

Iridium 15 - Orbit

View from above orbital plane
View from above orbital plane
View from above satellite
View from above satellite

Ground track
Ground track

The orbit data is extracted from the following two-line orbital elements,

1 24869U 97034A   15062.31740120  .00000066  00000-0  16393-4 0  9992
2 24869 086.3992 011.6176 0002306 081.9055 071.5614 14.34216460923963
Epoch (UTC): 03 March 2015 07:37:03
Eccentricity: 0.0002306
inclination: 86.3992°
perigee height: 776 km
apogee height: 779 km
right ascension of ascending node: 11.6176°
argument of perigee: 81.9055°
revolutions per day: 14.34216460
mean anomaly at epoch: 71.5614°
orbit number at epoch: 92396

The dashed part of the orbit path shows where the satellite is in the earth's shadow,  

DLR